TimeCDT,TemperatureF,Dew PointF,Humidity,Sea Level PressureIn,VisibilityMPH,Wind Direction,Wind SpeedMPH,Gust SpeedMPH,PrecipitationIn,Events,Conditions,WindDirDegrees,DateUTC
12:56 AM,57.9,48.0,70,30.04,10.0,South,9.2,-,N/A,,Clear,170,2013-09-14 05:56:00
1:56 AM,57.0,48.0,72,30.05,10.0,South,8.1,-,N/A,,Clear,170,2013-09-14 06:56:00
2:56 AM,55.9,48.0,75,30.04,10.0,South,6.9,-,N/A,,Clear,180,2013-09-14 07:56:00
3:56 AM,55.0,48.0,77,30.03,10.0,South,6.9,-,N/A,,Clear,190,2013-09-14 08:56:00
4:56 AM,55.9,48.0,75,30.02,10.0,South,10.4,-,N/A,,Partly Cloudy,180,2013-09-14 09:56:00
5:56 AM,55.9,48.0,75,30.01,10.0,South,9.2,-,N/A,,Scattered Clouds,180,2013-09-14 10:56:00
6:56 AM,57.9,48.0,70,30.00,10.0,South,9.2,-,N/A,,Mostly Cloudy,180,2013-09-14 11:56:00
7:56 AM,57.0,48.9,74,30.00,10.0,South,9.2,-,N/A,,Mostly Cloudy,180,2013-09-14 12:56:00
8:56 AM,59.0,48.9,69,29.99,10.0,South,12.7,-,N/A,,Mostly Cloudy,180,2013-09-14 13:56:00
9:56 AM,60.1,50.0,69,29.99,10.0,South,11.5,-,0.00,,Overcast,180,2013-09-14 14:56:00
10:56 AM,63.0,51.1,65,29.96,10.0,South,11.5,-,0.00,,Overcast,180,2013-09-14 15:56:00
11:56 AM,63.0,51.1,65,29.95,10.0,South,20.7,27.6,0.00,,Overcast,180,2013-09-14 16:56:00
12:56 PM,63.0,53.1,70,29.93,10.0,South,16.1,20.7,0.00,,Overcast,180,2013-09-14 17:56:00
1:56 PM,62.1,53.1,72,29.91,10.0,South,16.1,23.0,0.00,Rain,Light Rain,180,2013-09-14 18:56:00
2:56 PM,64.9,53.1,65,29.87,10.0,South,15.0,20.7,0.00,,Overcast,180,2013-09-14 19:56:00
3:56 PM,66.0,53.1,63,29.84,10.0,South,18.4,24.2,N/A,,Overcast,170,2013-09-14 20:56:00
4:56 PM,69.1,54.0,58,29.82,10.0,South,15.0,-,N/A,,Overcast,180,2013-09-14 21:56:00
5:56 PM,70.0,54.0,57,29.82,10.0,SSW,12.7,24.2,N/A,,Overcast,200,2013-09-14 22:56:00
6:56 PM,70.0,53.1,55,29.83,10.0,SSW,10.4,-,N/A,,Overcast,200,2013-09-14 23:56:00
7:56 PM,68.0,54.0,61,29.80,10.0,South,12.7,-,N/A,,Mostly Cloudy,180,2013-09-15 00:56:00
8:56 PM,66.0,54.0,65,29.81,10.0,South,12.7,-,N/A,,Mostly Cloudy,190,2013-09-15 01:56:00
9:56 PM,66.0,54.0,65,29.81,10.0,South,11.5,-,N/A,,Mostly Cloudy,190,2013-09-15 02:56:00
10:56 PM,66.0,55.0,68,29.80,10.0,SSW,11.5,-,N/A,,Overcast,200,2013-09-15 03:56:00
11:56 PM,66.0,55.0,68,29.79,10.0,SSW,10.4,-,N/A,,Overcast,200,2013-09-15 04:56:00